When you browse on this site, cookies collect data to enhance your experience and personalize the content and advertising you see.
Visit our Privacy Policy to learn more. By continuing to use the site, you agree to this use of cookies and data.

Hourly Weather Le Mans

Today, 9 August, Sunday

Time Temperature Precipitation Wind Pressure Humidity
00:00 +24°C° 0 mm 2 mps 757 mmHg 71%
01:00 +23°C° 0 mm 2 mps 757 mmHg 72%
02:00 +23°C° 0 mm 1 mps 757 mmHg 72%
03:00 +22°C° 0 mm 1 mps 757 mmHg 72%
04:00 +23°C° 0 mm 1 mps 757 mmHg 71%
05:00 +23°C° 0 mm 1 mps 757 mmHg 71%
06:00 +23°C° 0 mm 1 mps 757 mmHg 70%
07:00 +26°C° 0 mm 1 mps 757 mmHg 62%
08:00 +28°C° 0 mm 1 mps 757 mmHg 53%
09:00 +31°C° 0 mm 1 mps 757 mmHg 45%
10:00 +33°C° 0 mm 1 mps 756 mmHg 40%
11:00 +35°C° 0 mm 2 mps 756 mmHg 35%
12:00 +37°C° 0 mm 2 mps 756 mmHg 30%
13:00 +38°C° 0 mm 2 mps 755 mmHg 28%
14:00 +38°C° 0 mm 3 mps 755 mmHg 25%
15:00 +39°C° 0 mm 3 mps 755 mmHg 23%
16:00 +38°C° 0 mm 3 mps 754 mmHg 26%
17:00 +37°C° 0 mm 3 mps 754 mmHg 29%
18:00 +36°C° 0 mm 2 mps 754 mmHg 32%
19:00 +33°C° 0 mm 3 mps 754 mmHg 41%
20:00 +29°C° 0 mm 3 mps 755 mmHg 51%
21:00 +26°C° 0 mm 4 mps 755 mmHg 61%
22:00 +25°C° 0 mm 3 mps 755 mmHg 64%
23:00 +24°C° 0 mm 3 mps 755 mmHg 68%

Tomorrow, 10 August, Monday

Time Temperature Precipitation Wind Pressure Humidity
00:00 +23°C° 0 mm 2 mps 755 mmHg 71%
01:00 +23°C° 0 mm 2 mps 754 mmHg 75%
02:00 +21°C° 0 mm 2 mps 754 mmHg 78%
03:00 +21°C° 0 mm 1 mps 754 mmHg 81%
04:00 +22°C° 0 mm 1 mps 754 mmHg 79%
05:00 +23°C° 0 mm 1 mps 754 mmHg 77%
06:00 +23°C° 0 mm 1 mps 754 mmHg 74%
07:00 +26°C° 0 mm 1 mps 754 mmHg 65%
08:00 +28°C° 0 mm 1 mps 754 mmHg 57%
09:00 +31°C° 0 mm 2 mps 754 mmHg 48%
10:00 +34°C° 0 mm 2 mps 754 mmHg 42%
11:00 +35°C° 0 mm 1 mps 754 mmHg 37%
12:00 +37°C° 0 mm 1 mps 754 mmHg 31%
13:00 +37°C° 0 mm 1 mps 754 mmHg 29%
14:00 +39°C° 0 mm 2 mps 753 mmHg 27%
15:00 +39°C° 0 mm 2 mps 753 mmHg 25%
16:00 +39°C° 0 mm 2 mps 753 mmHg 27%
17:00 +38°C° 0 mm 2 mps 753 mmHg 28%
18:00 +37°C° 0 mm 2 mps 753 mmHg 30%
19:00 +34°C° 0.3 mm 2 mps 753 mmHg 39%
20:00 +30°C° 0.3 mm 2 mps 753 mmHg 48%
21:00 +27°C° 0.3 mm 2 mps 754 mmHg 57%
22:00 +26°C° 0.2 mm 2 mps 754 mmHg 61%
23:00 +25°C° 0.2 mm 1 mps 754 mmHg 65%

Day after tomorrow, 11 August, Tuesday

Time Temperature Precipitation Wind Pressure Humidity
00:00 +24°C° 0.2 mm 1 mps 754 mmHg 69%
01:00 +24°C° 0 mm 1 mps 754 mmHg 72%
02:00 +23°C° 0 mm 1 mps 754 mmHg 74%
03:00 +23°C° 0 mm 1 mps 754 mmHg 76%
04:00 +23°C° 0 mm 1 mps 754 mmHg 75%
05:00 +24°C° 0 mm 2 mps 754 mmHg 74%
06:00 +24°C° 0 mm 2 mps 754 mmHg 73%
07:00 +27°C° 0 mm 2 mps 754 mmHg 65%
08:00 +29°C° 0 mm 3 mps 754 mmHg 57%
09:00 +31°C° 0 mm 3 mps 755 mmHg 49%
10:00 +34°C° 0 mm 3 mps 755 mmHg 45%
11:00 +35°C° 0 mm 3 mps 754 mmHg 41%
12:00 +37°C° 0 mm 3 mps 754 mmHg 36%
13:00 +37°C° 0 mm 3 mps 754 mmHg 34%
14:00 +38°C° 0 mm 3 mps 754 mmHg 31%
15:00 +39°C° 0 mm 2 mps 754 mmHg 29%
16:00 +38°C° 0 mm 2 mps 753 mmHg 31%
17:00 +36°C° 0 mm 1 mps 753 mmHg 33%
18:00 +36°C° 0 mm 1 mps 753 mmHg 35%
19:00 +33°C° 0.3 mm 1 mps 753 mmHg 43%
20:00 +30°C° 0.3 mm 1 mps 753 mmHg 51%
21:00 +27°C° 0.3 mm 1 mps 754 mmHg 59%
22:00 +26°C° 0.2 mm 1 mps 754 mmHg 65%
23:00 +25°C° 0.2 mm 1 mps 754 mmHg 71%

12 August, Wednesday

Time Temperature Precipitation Wind Pressure Humidity
00:00 +24°C° 0.2 mm 1 mps 754 mmHg 78%
01:00 +23°C° 0.5 mm 2 mps 754 mmHg 81%
02:00 +23°C° 0.5 mm 2 mps 754 mmHg 84%
03:00 +22°C° 0.5 mm 3 mps 754 mmHg 88%
04:00 +22°C° 0.1 mm 3 mps 753 mmHg 88%
05:00 +22°C° 0.1 mm 3 mps 753 mmHg 87%
06:00 +23°C° 0.1 mm 2 mps 753 mmHg 87%
07:00 +25°C° 0.2 mm 2 mps 753 mmHg 81%
08:00 +26°C° 0.2 mm 2 mps 754 mmHg 75%
09:00 +28°C° 0.2 mm 2 mps 754 mmHg 68%
10:00 +27°C° 0.3 mm 3 mps 754 mmHg 71%
11:00 +27°C° 0.3 mm 4 mps 754 mmHg 74%
12:00 +26°C° 0.3 mm 4 mps 754 mmHg 77%
13:00 +27°C° 0.1 mm 4 mps 753 mmHg 70%
14:00 +29°C° 0.1 mm 4 mps 753 mmHg 63%
15:00 +30°C° 0.1 mm 4 mps 753 mmHg 56%
16:00 +30°C° 0.2 mm 3 mps 753 mmHg 58%
17:00 +29°C° 0.2 mm 3 mps 753 mmHg 59%
18:00 +29°C° 0.2 mm 2 mps 752 mmHg 61%
19:00 +27°C° 0.2 mm 2 mps 753 mmHg 70%
20:00 +25°C° 0.2 mm 1 mps 753 mmHg 79%
21:00 +23°C° 0.2 mm 1 mps 753 mmHg 88%
22:00 +22°C° 0.9 mm 1 mps 753 mmHg 90%
23:00 +22°C° 0.9 mm 1 mps 753 mmHg 91%

13 August, Thursday

Time Temperature Precipitation Wind Pressure Humidity
00:00 +20°C° 0.9 mm 2 mps 753 mmHg 93%
01:00 +20°C° 1.7 mm 2 mps 752 mmHg 94%
02:00 +20°C° 1.7 mm 2 mps 752 mmHg 94%
03:00 +20°C° 1.7 mm 2 mps 752 mmHg 95%
04:00 +19°C° 0.4 mm 3 mps 752 mmHg 95%
05:00 +19°C° 0.4 mm 3 mps 752 mmHg 95%
06:00 +19°C° 0.4 mm 4 mps 752 mmHg 95%
07:00 +20°C° 0.2 mm 4 mps 752 mmHg 91%
08:00 +21°C° 0.2 mm 3 mps 752 mmHg 87%
09:00 +22°C° 0.2 mm 3 mps 752 mmHg 83%
10:00 +22°C° 1.1 mm 3 mps 752 mmHg 82%
11:00 +23°C° 1.1 mm 4 mps 752 mmHg 81%
12:00 +23°C° 1.1 mm 4 mps 752 mmHg 80%
13:00 +23°C° 2.2 mm 4 mps 752 mmHg 80%
14:00 +25°C° 2.2 mm 5 mps 752 mmHg 80%
15:00 +25°C° 2.2 mm 5 mps 752 mmHg 80%
16:00 +22°C° 1.3 mm 5 mps 752 mmHg 83%
17:00 +21°C° 1.3 mm 6 mps 752 mmHg 87%
18:00 +19°C° 1.3 mm 6 mps 753 mmHg 90%
19:00 +19°C° 0.2 mm 5 mps 753 mmHg 90%
20:00 +17°C° 0.2 mm 5 mps 754 mmHg 90%
21:00 +17°C° 0.2 mm 5 mps 754 mmHg 90%
22:00 +17°C° 0 mm 4 mps 755 mmHg 89%
23:00 +17°C° 0 mm 4 mps 755 mmHg 87%

14 August, Friday

Time Temperature Precipitation Wind Pressure Humidity
00:00 +17°C° 0 mm 3 mps 755 mmHg 86%
01:00 +16°C° 0 mm 3 mps 755 mmHg 86%
02:00 +16°C° 0 mm 3 mps 755 mmHg 85%
03:00 +16°C° 0 mm 3 mps 756 mmHg 85%
04:00 +14°C° 0 mm 3 mps 756 mmHg 87%
05:00 +13°C° 0 mm 3 mps 756 mmHg 89%
06:00 +12°C° 0 mm 3 mps 756 mmHg 92%
07:00 +14°C° 0 mm 3 mps 756 mmHg 83%
08:00 +17°C° 0 mm 4 mps 756 mmHg 75%
09:00 +19°C° 0 mm 4 mps 757 mmHg 67%
10:00 +20°C° 0.1 mm 4 mps 756 mmHg 64%
11:00 +21°C° 0.1 mm 4 mps 756 mmHg 61%
12:00 +21°C° 0.1 mm 4 mps 756 mmHg 58%
13:00 +21°C° 0.1 mm 4 mps 756 mmHg 59%
14:00 +21°C° 0.1 mm 4 mps 756 mmHg 59%
15:00 +21°C° 0.1 mm 3 mps 756 mmHg 59%
16:00 +21°C° 0.1 mm 3 mps 756 mmHg 62%
17:00 +20°C° 0.1 mm 2 mps 756 mmHg 64%
18:00 +20°C° 0.1 mm 2 mps 756 mmHg 67%
19:00 +19°C° 0 mm 2 mps 756 mmHg 70%
20:00 +18°C° 0 mm 3 mps 756 mmHg 73%
21:00 +16°C° 0 mm 3 mps 756 mmHg 76%
22:00 +16°C° 0 mm 3 mps 755 mmHg 78%
23:00 +16°C° 0 mm 3 mps 755 mmHg 80%
Show more